IRNSS-1F                
1 41384U 16015A   19260.84629955  .00000153  00000-0  00000-0 0  9998
2 41384   2.5676 235.4593 0018929 189.4115 268.6960  1.00271473 12989
PSLV R/B                
1 41385U 16015B   19259.44956274  .00002817  00000-0  36662-3 0  9995
2 41385  17.7854 331.9481 6024636 277.7614  21.7978  4.02720289 51155